Air Resources Laboratory banner image
Air Resources Laboratory web site National Oceanic and Atmospheric Administration (NOAA)

al roundup


Office: HUN

ASUS44 KHUN 190910
RWRHUN

WEATHER ROUNDUP FOR THE TENNESSEE VALLEY
NATIONAL WEATHER SERVICE HUNTSVILLE AL
300 AM CST MON NOV 19 2018

ALZ001>004-191000-
NORTHWEST ALABAMA

CITY           SKY/WX    TMP DP  RH WIND       PRES   REMARKS
COURTLAND HCN    N/A     45 N/A N/A S3          N/A
RUSSELLVILLE     N/A     43 N/A N/A MISG        N/A
SHOALS AIRPORT FAIR      44  42  93 CALM      30.14S
SHOALS TVA RES   N/A     43 N/A N/A MISG        N/A
$$

ALZ005>007-016-191000-
NORTH CENTRAL ALABAMA

CITY           SKY/WX    TMP DP  RH WIND       PRES   REMARKS
CULLMAN AG STN   N/A     32 N/A N/A CALM        N/A
DECATUR AP     FAIR      41  41 100 CALM      30.14F FOG
HUNTSVILLE AP  FAIR      44  43  96 E5        30.14F
MERIDIANVILLE  CLEAR     40  39  97 CALM      30.14F FOG
REDSTONE ARSN  FAIR      44  43  98 CALM      30.13F
VINEMONT AP    FAIR      43  41  93 CALM      30.16S
$$

ALZ008>010-191000-
NORTHEAST ALABAMA

CITY           SKY/WX    TMP DP  RH WIND       PRES   REMARKS
ALBERTVILLE    FAIR      45  45 100 CALM      30.14S
FORT PAYNE     FAIR      38  37  98 N5        30.15S WCI  34
SCOTTSBORO AP  FAIR      41  41 100 CALM      30.16F
SCOTTSBORO HCN   N/A     41 N/A N/A MISG        N/A
VALLEY HEAD      N/A     37 N/A N/A MISG        N/A
$$

TNZ076-096-097-191000-
SOUTHEASTERN MIDDLE TENNESSEE

CITY           SKY/WX    TMP DP  RH WIND       PRES   REMARKS
TULLAHOMA      CLEAR     41  41 100 CALM      30.13S
WINCHESTER     CLOUDY    46  43  87 CALM      30.13F
$$

...SURROUNDING SITES...

CITY           SKY/WX    TMP DP  RH WIND       PRES   REMARKS
ATLANTA        MOCLDY    46  42  86 CALM      30.16S
ANNISTON       FAIR      41  32  70 CALM      30.17F
BIRMINGHAM     MOCLDY    44  42  93 CALM      30.18S
CHATTANOOGA    FAIR      42  40  92 CALM      30.16F FOG
CORINTH        MOCLDY    48  43  81 CALM      30.11S
DALTON         FAIR      36  36 100 CALM      30.18S
GADSDEN        FAIR      38  38 100 CALM      30.17F
GOLDEN TRNGL   FAIR      45  43  93 S6        30.14F
HALEYVILLE     FAIR      45  42  89 S5        30.15F
JACKSON TN     MOCLDY    52  46  80 S6        30.08F
MEMPHIS        CLOUDY    50  47  89 NW8       30.10R
NASHVILLE      MOCLDY    47  41  80 S5        30.11S
OXFORD MS      CLOUDY    52  46  82 CALM      30.12S
ROME           FAIR      39  36  89 CALM      30.17S
SAVANNAH       PTCLDY    50  45  81 S6        30.10S
SELMER         PTCLDY    54  43  66 S6        30.09S
TUPELO         FAIR      50  44  80 S3        30.12S
TUSCALOOSA     MOCLDY    43  42  97 CALM      30.16F
$$

...GULF COAST WEATHER...

CITY           SKY/WX    TMP DP  RH WIND       PRES   REMARKS
GULFPORT       FAIR      47  45  93 CALM      30.14F FOG
PASCAGOULA     FAIR      44  42  93 CALM      30.15F
MOBILE         FAIR      46  45  96 CALM      30.15S
GULF SHORES    FAIR      45  45 100 N5        30.14F
DESTIN         FAIR      52  49  89 N3        30.14F
PANAMA CITY    FAIR      51  46  81 E1        30.16S
APPALACHICOLA  FAIR      51  45  79 NE6       30.12S
$$





Office: BMX ASUS44 KBMX 190910 RWRAL ALABAMA REGIONAL WEATHER ROUNDUP NATIONAL WEATHER SERVICE BIRMINGHAM AL 300 AM CST MON NOV 19 2018 NOTE: "FAIR" INDICATES FEW OR NO CLOUDS BELOW 12,000 FEET WITH NO SIGNIFICANT WEATHER AND/OR OBSTRUCTIONS TO VISIBILITY. THE REMARK "TC" DENOTES TEMPERATURE IN DEGREES CELSIUS. ALZ001>011-014-016>018-020-191000- NORTH ALABAMA CITY SKY/WX TMP DP RH WIND PRES REMARKS MUSCLE SHOALS FAIR 44 42 93 CALM 30.14S HUNTSVILLE FAIR 44 43 96 E5 30.14F DECATUR FAIR 41 41 100 CALM 30.14F FOG HALEYVILLE FAIR 45 42 89 S5 30.15F GADSDEN FAIR 38 38 100 CALM 30.17F $$ ALZ012-013-022-023-030>036-040>044-191000- WEST CENTRAL ALABAMA CITY SKY/WX TMP DP RH WIND PRES REMARKS TUSCALOOSA MOCLDY 43 42 97 CALM 30.16F DEMOPOLIS FAIR N/A N/A N/A CALM 30.16S $$ ALZ015-024>026-033>036-041>044-191000- CENTRAL ALABAMA CITY SKY/WX TMP DP RH WIND PRES REMARKS BIRMINGHAM MOCLDY 44 42 93 CALM 30.18S MONTGOMERY FAIR 44 42 93 CALM 30.16F SHELBY CO ARPT FAIR 42 40 92 CALM 30.16S MAXWELL AFB FOG 45 43 93 CALM 30.16S VSB 1 GREENVILLE NOT AVBL SELMA FAIR 41 39 93 CALM 30.16S PRATTVILLE FAIR 42 42 100 CALM 30.16S BESSEMER FAIR 43 42 97 CALM 30.16F TALLADEGA FAIR 38 38 100 CALM 30.17F PELL CITY SUNNY 36 36 100 CALM 30.17F FOG MARION FAIR 38 34 85 CALM 30.16R SYLACAUGA FAIR 38 38 100 CALM 30.17S FOG $$ ALZ019-021-028-029-037-038-045>048-191000- EAST CENTRAL ALABAMA CITY SKY/WX TMP DP RH WIND PRES REMARKS ANNISTON FAIR 41 32 70 CALM 30.17F ALEXANDER CITY FAIR 40 40 100 CALM 30.16S AUBURN FAIR 45 44 97 N3 30.17R $$ ALZ051>064-191000- SOUTHWEST ALABAMA CITY SKY/WX TMP DP RH WIND PRES REMARKS MOBILE FAIR 46 45 96 CALM 30.15S BROOKLEY FIELD FAIR 48 47 96 NW3 30.16F EVERGREEN FAIR 42 39 89 CALM 30.16S $$ ALZ049-050-065>069-191000- SOUTHEAST ALABAMA CITY SKY/WX TMP DP RH WIND PRES REMARKS DOTHAN FAIR 45 42 89 NW5 30.18S OZARK FAIR 44 43 96 CALM 30.15S TROY FAIR 41 40 96 CALM 30.16F EUFAULA NOT AVBL $$